Погода в Самсоновке

Россия / Самарская область     53°53′14″N   51°30′31″E
темп.,
°C
ветер,
м/с
пор.,
м/с
влажн.,
%
обл.,
%
осадки,
мм/ч
давл.,
гПа
погр.,
м
19 января, ср
ср1901:00−3ююз71694100 0.4 1015743
04:00−3ююз71495100 0.9 1016600
07:00−4ю71395100 0.9 1016491
10:00−4ю71494100 1.1 1017533
13:00−3ю71495100 0.4 1017637
16:00−3ю71495100 1.2 1018579
19:00−4ю71394100 0.5 1018557
22:00−4ююз51195100 0.9 1019451
20 января, чт
чт2001:00−5ю51094100 0.1 1020337
04:00−6ю4995100 0.3 1021334
07:00−7ююв2697100 0.2 1021232
10:00−6ю499594 0.4 1022316
13:00−7ю489594 0.1 1023339
16:00−7ю489591 0.1 1023272
19:00−13юв239983 0.1 102434
22:00−15юв229786 0.1 102427
21 января, пт
пт2101:00−18юв229659 0.0 102412
04:00−19вюв219568 0.0 10259
07:00−20юв229482 0.0 102510
10:00−16юв228878 0.0 102647
13:00−12юв268547 0.0 1025169
16:00−13юв2291100 0.0 102651
19:00−17вюв2292100 0.0 102615
22:00−16вюв2391100 0.0 102645
22 января, сб
сб2201:00−16юв2389100 0.0 102743
04:00−17юв2490100 0.0 102755
07:00−16вюв2488100 0.0 102762
10:00−16юв258985 0.0 102883
13:00−11юв398460 0.0 1028267
16:00−12юв3888100 0.0 1029153
19:00−14вюв3690100 0.0 103099
22:00−14юв2391100 0.0 103157
23 января, вс
вс2301:00−15юв1191100 0.0 103224
04:00−16вюв2290100 0.0 103319
07:00−16вюв2289100 0.0 103416
10:00−12юв2784100 0.0 1035179
13:00−9юв2682100 0.0 1036214
16:00−11вюв1192100 0.0 103710
19:00−13в2193100 0.0 103812
22:00−12вюв1191100 0.0 103823